FW3266 Weather Reports


time (UTC)temp
C
wind
direction
speed
KPH
gust
KPH
rain 1hr
cm
rain 24hr
cm
rain mn
cm
humidity
%
barometer
mb
20260507091810 11 359 4.8 12.9 0.28 0.79 0.66 90 1008.3
20260507091313 11 47 6.4 12.9 0.30 0.79 0.66 90 1008.0
20260507090805 11 359 3.2 9.7 0.33 0.79 0.66 90 1007.9
20260507090300 11 321 3.2 11.3 0.33 0.76 0.64 90 1008.0
20260507085754 11 326 4.8 11.3 0.48 0.76 0.64 90 1008.0
20260507085256 11 314 4.8 11.3 0.56 0.76 0.64 89 1007.9
20260507084750 11 13 3.2 11.3 0.61 0.74 0.61 89 1008.0
20260507084250 11 49 3.2 6.4 0.61 0.74 0.61 89 1008.0
20260507083743 11 48 3.2 9.7 0.58 0.71 0.58 89 1007.8
20260507083237 11 359 3.2 14.5 0.56 0.69 0.56 89 1007.9
20260507082733 11 339 6.4 14.5 0.51 0.64 0.51 88 1008.0
20260507082226 11 359 4.8 12.9 0.43 0.56 0.43 88 1007.9
20260507081719 12 354 4.8 12.9 0.38 0.51 0.38 88 1008.1
20260507081216 12 1 6.4 11.3 0.36 0.48 0.36 88 1008.2
20260507080950 12 0 1.6 11.3 0.33 0.46 0.33 88 1007.8
20260507080209 12 18 3.2 12.9 0.30 0.43 0.30 88 1007.8
20260507075951 13 58 6.4 12.9 0.15 0.28 0.15 87 1007.9
20260507075158 13 297 6.4 16.1 0.05 0.18 0.08 87 1007.8
20260507074652 13 40 6.4 16.1 0.00 0.13 0.00 88 1007.4
20260507074146 13 40 4.8 12.9 0.00 0.13 0.00 89 1006.7
20260507073642 13 26 4.8 9.7 0.00 0.13 0.00 89 1006.6
20260507073410 13 29 1.6 8.0 0.00 0.13 0.00 90 1006.6
20260507072635 13 334 4.8 8.0 0.00 0.13 0.00 90 1006.7
20260507072129 13 350 1.6 8.0 0.00 0.13 0.00 90 1006.7
20260507071857 13 34 4.8 8.0 0.00 0.13 0.00 91 1006.6
20260507071125 13 50 3.2 6.4 0.00 0.13 0.00 91 1006.8
20260507070621 13 50 1.6 6.4 0.00 0.13 0.00 91 1006.8
20260507070114 13 51 1.6 9.7 0.00 0.13 0.00 91 1006.6
20260507065611 14 51 1.6 9.7 0.00 0.13 0.00 91 1006.4
20260507065104 14 248 0.0 4.8 0.00 0.13 0.00 91 1006.5
20260507064600 14 232 0.0 0.0 0.00 0.13 0.00 91 1006.6
20260507064100 14 232 0.0 0.0 0.00 0.13 0.00 91 1006.7
20260507063554 14 232 0.0 0.0 0.00 0.13 0.00 91 1006.7
20260507063318 14 232 0.0 0.0 0.00 0.13 0.00 91 1006.7
20260507062543 14 232 0.0 0.0 0.00 0.13 0.00 91 1006.8
20260507062044 14 232 0.0 3.2 0.00 0.13 0.00 91 1006.9
20260507061550 14 232 0.0 0.0 0.00 0.13 0.00 91 1007.0
20260507061543 14 232 0.0 3.2 0.00 0.13 0.00 91 1006.8
20260507060531 14 232 0.0 0.0 0.00 0.13 0.00 91 1007.1
20260507060027 14 232 0.0 0.0 0.00 0.13 0.00 91 1007.2
20260507055513 14 232 0.0 0.0 0.00 0.13 0.00 91 1006.9
20260507055009 14 232 0.0 6.4 0.00 0.13 0.00 91 1007.0
20260507054456 14 232 1.6 6.4 0.00 0.13 0.00 91 1007.0
20260507054223 14 230 3.2 6.4 0.00 0.13 0.00 91 1007.2
20260507053451 14 230 1.6 4.8 0.00 0.13 0.00 91 1007.2
20260507052938 14 230 3.2 4.8 0.00 0.13 0.00 91 1007.0
20260507052430 14 230 1.6 4.8 0.00 0.13 0.00 91 1007.1
20260507051925 14 225 3.2 6.4 0.00 0.13 0.00 91 1007.3
20260507051420 14 271 3.2 6.4 0.00 0.13 0.00 91 1007.4
20260507050915 14 274 3.2 6.4 0.00 0.13 0.00 91 1007.4
20260507050407 14 256 3.2 6.4 0.00 0.13 0.00 91 1007.4
20260507045909 14 244 3.2 8.0 0.00 0.13 0.00 91 1007.5
20260507045405 14 243 4.8 8.0 0.00 0.13 0.00 91 1007.3
20260507044859 14 245 3.2 8.0 0.00 0.13 0.00 91 1007.3
20260507044351 14 254 3.2 8.0 0.00 0.13 0.00 91 1007.3
20260507044126 14 271 3.2 8.0 0.00 0.13 0.00 91 1007.2
20260507043346 14 316 4.8 8.0 0.00 0.13 0.00 91 1007.2
20260507043113 14 259 3.2 6.4 0.00 0.13 0.00 91 1007.2
20260507042343 14 256 3.2 11.3 0.00 0.13 0.00 91 1007.2
20260507041837 14 260 3.2 11.3 0.00 0.13 0.00 91 1007.2
20260507041338 14 241 3.2 9.7 0.00 0.13 0.00 91 1007.2
20260507040833 14 241 4.8 9.7 0.00 0.13 0.00 91 1007.2
20260507040324 14 238 4.8 9.7 0.00 0.13 0.00 91 1007.2
20260507035819 14 250 4.8 9.7 0.00 0.13 0.13 91 1007.4
20260507035322 14 233 4.8 12.9 0.00 0.13 0.13 91 1007.6
20260507035318 14 246 4.8 12.9 0.00 0.13 0.13 91 1007.5
20260507034316 13 255 4.8 11.3 0.00 0.13 0.13 91 1007.5
20260507034310 14 240 6.4 9.7 0.00 0.13 0.13 91 1007.6
20260507033302 13 262 6.4 11.3 0.00 0.13 0.13 91 1007.3
20260507032801 13 248 6.4 11.3 0.00 0.13 0.13 91 1007.4
20260507032259 13 280 4.8 11.3 0.00 0.13 0.13 91 1007.5
20260507031754 13 234 4.8 11.3 0.00 0.13 0.13 91 1007.3
20260507031255 13 243 6.4 11.3 0.00 0.13 0.13 91 1007.2
20260507030749 13 244 4.8 11.3 0.00 0.13 0.13 91 1007.2
20260507030248 13 253 6.4 14.5 0.00 0.13 0.13 91 1007.3
20260507025745 13 197 6.4 14.5 0.00 0.13 0.13 91 1007.2
20260507025243 13 230 6.4 9.7 0.00 0.13 0.13 91 1007.2
20260507024739 13 245 4.8 9.7 0.00 0.13 0.13 91 1007.1
20260507024233 13 255 4.8 9.7 0.00 0.13 0.13 91 1007.1
20260507023727 13 212 4.8 16.1 0.00 0.13 0.13 91 1007.0
20260507023222 13 252 6.4 16.1 0.00 0.13 0.13 91 1007.2
20260507022723 13 240 6.4 11.3 0.00 0.13 0.13 91 1007.0
20260507022217 13 279 4.8 11.3 0.00 0.13 0.13 91 1007.1
20260507021716 13 250 4.8 12.9 0.00 0.13 0.13 91 1007.2
20260507021213 13 240 4.8 12.9 0.00 0.13 0.13 91 1007.3
20260507020701 13 226 4.8 12.9 0.00 0.13 0.13 91 1007.4
20260507020201 14 249 4.8 12.9 0.00 0.13 0.13 91 1007.6
20260507015655 13 245 4.8 12.9 0.00 0.13 0.13 91 1007.7
20260507015148 14 178 6.4 14.5 0.00 0.13 0.13 91 1007.7
20260507014646 14 241 6.4 16.1 0.00 0.13 0.13 91 1007.7
20260507014137 14 236 6.4 16.1 0.00 0.13 0.13 91 1007.6
20260507013914 14 238 6.4 12.9 0.03 0.13 0.13 91 1007.7
20260507013126 14 298 8.0 12.9 0.03 0.13 0.13 91 1007.8
20260507012621 14 187 4.8 12.9 0.03 0.13 0.13 91 1007.9
20260507012116 14 240 4.8 12.9 0.03 0.13 0.13 91 1007.9
20260507011615 14 226 6.4 14.5 0.03 0.13 0.13 91 1007.9
20260507011112 14 253 8.0 14.5 0.03 0.13 0.13 91 1007.7
20260507010607 14 261 8.0 14.5 0.05 0.13 0.13 90 1007.7
20260507010105 14 274 6.4 14.5 0.05 0.13 0.13 90 1007.7
20260507005601 14 238 6.4 12.9 0.05 0.13 0.13 90 1007.8
20260507005055 14 239 6.4 11.3 0.05 0.13 0.13 91 1007.7
20260507004556 14 248 8.0 16.1 0.05 0.13 0.13 91 1007.8
20260507004052 14 250 9.7 17.7 0.05 0.13 0.13 91 1007.8
20260507003544 14 233 8.0 17.7 0.03 0.10 0.10 90 1007.8
20260507003037 14 270 8.0 16.1 0.03 0.10 0.10 90 1007.9
20260507002535 14 256 8.0 16.1 0.03 0.10 0.10 90 1007.8
20260507002028 14 245 6.4 16.1 0.05 0.10 0.10 90 1007.8
20260507001520 14 236 8.0 16.1 0.05 0.10 0.10 90 1007.7
20260507001018 14 262 9.7 25.7 0.08 0.10 0.10 90 1007.7
20260507000510 14 239 8.0 25.7 0.05 0.08 0.08 90 1007.7
20260507000004 14 249 8.0 22.5 0.05 0.08 0.08 90 1007.8
20260506235731 14 198 8.0 20.9 0.05 0.08 0.08 90 1007.6
20260506235000 14 197 9.7 20.9 0.05 0.08 0.08 90 1007.8
20260506234731 14 198 9.7 20.9 0.05 0.08 0.08 90 1007.7
20260506234227 14 203 4.8 17.7 0.08 0.08 0.08 89 1007.9
20260506233448 14 236 6.4 17.7 0.08 0.08 0.08 89 1008.0
20260506232944 15 248 6.4 17.7 0.08 0.08 0.08 89 1008.0
20260506232436 15 238 6.4 12.9 0.08 0.08 0.08 89 1008.0
20260506231933 15 245 8.0 17.7 0.05 0.05 0.05 89 1008.0
20260506231426 15 218 6.4 16.1 0.05 0.05 0.05 89 1008.0
20260506230920 15 218 4.8 16.1 0.03 0.03 0.03 89 1008.0
20260506230416 15 231 6.4 16.1 0.03 0.03 0.03 88 1008.0
20260506225916 15 238 6.4 16.1 0.03 0.03 0.03 88 1007.9
20260506225409 15 250 8.0 14.5 0.03 0.03 0.03 88 1008.0
20260506224909 15 219 9.7 14.5 0.03 0.03 0.03 87 1008.0
20260506224405 15 241 8.0 14.5 0.03 0.03 0.03 87 1008.2
20260506223908 15 193 4.8 20.9 0.00 0.00 0.00 87 1008.5
20260506223359 15 198 9.7 20.9 0.00 0.00 0.00 86 1008.3
20260506222855 15 220 6.4 14.5 0.00 0.00 0.00 86 1008.4
20260506222627 15 231 8.0 17.7 0.00 0.00 0.00 86 1008.4
20260506221844 15 253 8.0 17.7 0.00 0.00 0.00 85 1008.5
20260506221336 15 264 9.7 14.5 0.00 0.00 0.00 85 1008.5
20260506221110 16 248 8.0 14.5 0.00 0.00 0.00 85 1008.5
20260506220606 16 248 9.7 14.5 0.00 0.00 0.00 85 1008.5
20260506215826 16 197 8.0 14.5 0.00 0.00 0.00 85 1008.5
20260506215326 16 261 6.4 20.9 0.00 0.00 0.00 85 1008.6
20260506214824 16 245 8.0 20.9 0.00 0.00 0.00 84 1008.5
20260506214316 16 237 8.0 22.5 0.00 0.00 0.00 84 1008.5
20260506213812 16 255 9.7 22.5 0.00 0.00 0.00 83 1008.5
20260506213304 16 221 11.3 22.5 0.00 0.00 0.00 83 1008.5
20260506212800 16 168 11.3 22.5 0.00 0.00 0.00 83 1008.5
20260506212253 16 169 9.7 16.1 0.00 0.00 0.00 83 1008.8
20260506211750 16 252 9.7 20.9 0.00 0.00 0.00 83 1008.8
20260506211242 16 259 8.0 20.9 0.00 0.00 0.00 83 1008.7
20260506211005 16 172 9.7 17.7 0.00 0.00 0.00 83 1008.8
20260506210746 16 172 9.7 17.7 0.00 0.00 0.00 83 1008.8
20260506210237 16 214 9.7 19.3 0.00 0.00 0.00 84 1008.7
20260506210015 16 204 11.3 19.3 0.00 0.00 0.00 84 1008.8
20260506205233 16 259 9.7 17.7 0.00 0.00 0.00 83 1009.0
20260506204728 16 206 9.7 20.9 0.00 0.00 0.00 84 1008.9
20260506204223 16 212 9.7 24.1 0.00 0.00 0.00 84 1008.9
20260506203955 16 271 9.7 25.7 0.00 0.00 0.00 84 1009.0
20260506203218 16 252 9.7 25.7 0.00 0.00 0.00 84 1009.0
20260506202718 16 224 9.7 25.7 0.00 0.00 0.00 84 1009.1
20260506202237 16 177 6.4 14.5 0.00 0.00 0.00 83 1009.1
20260506202229 16 169 8.0 25.7 0.00 0.00 0.00 83 1009.0
20260506201201 16 246 8.0 16.1 0.00 0.00 0.00 81 1009.2
20260506200700 16 242 9.7 19.3 0.00 0.00 0.00 80 1009.3
20260506200153 17 230 11.3 19.3 0.00 0.00 0.00 79 1009.3
20260506195650 17 242 11.3 19.3 0.00 0.00 0.00 77 1009.3
20260506195142 17 237 8.0 29.0 0.00 0.00 0.00 76 1009.4
20260506194638 17 247 11.3 29.0 0.00 0.00 0.00 75 1009.4
20260506194131 18 259 12.9 24.1 0.00 0.00 0.00 75 1009.4
20260506193626 18 252 9.7 25.7 0.00 0.00 0.00 75 1009.4
20260506193120 18 232 11.3 35.4 0.00 0.00 0.00 75 1009.5
20260506192616 18 203 9.7 35.4 0.00 0.00 0.00 75 1009.5
20260506192108 18 198 9.7 24.1 0.00 0.00 0.00 74 1009.4
20260506191604 18 234 12.9 29.0 0.00 0.00 0.00 74 1009.4
20260506191056 18 204 12.9 29.0 0.00 0.00 0.00 74 1009.3
20260506190553 18 228 11.3 24.1 0.00 0.00 0.00 74 1009.3
20260506190045 18 263 11.3 25.7 0.00 0.00 0.00 74 1009.2
20260506185820 18 254 14.5 25.7 0.00 0.00 0.00 73 1009.4
20260506185034 18 204 11.3 29.0 0.00 0.00 0.00 73 1009.3
20260506184530 18 224 14.5 29.0 0.00 0.00 0.00 73 1009.4
20260506184026 18 205 9.7 22.5 0.00 0.00 0.00 73 1009.6
20260506183524 18 249 14.5 22.5 0.00 0.00 0.00 72 1009.6
20260506183254 18 263 11.3 33.8 0.00 0.00 0.00 72 1009.4
20260506182520 18 167 12.9 40.2 0.00 0.00 0.00 72 1009.6
20260506182013 18 271 12.9 40.2 0.00 0.00 0.00 71 1009.6
20260506181510 19 213 12.9 40.2 0.00 0.00 0.00 71 1009.6
20260506181004 19 205 12.9 24.1 0.00 0.00 0.00 70 1009.8
20260506180504 19 207 11.3 24.1 0.00 0.00 0.00 69 1009.9
20260506175958 20 240 12.9 37.0 0.00 0.00 0.00 69 1010.1
20260506175452 20 259 12.9 37.0 0.00 0.00 0.00 70 1010.1
20260506174946 20 232 12.9 35.4 0.00 0.00 0.00 70 1010.1
20260506174442 20 219 17.7 35.4 0.00 0.00 0.00 69 1010.0
20260506173935 20 207 20.9 30.6 0.00 0.00 0.00 69 1010.2
20260506173432 20 191 9.7 29.0 0.00 0.00 0.00 68 1010.0
20260506172923 20 211 16.1 25.7 0.00 0.00 0.00 67 1010.1
20260506172419 20 241 9.7 22.5 0.00 0.00 0.00 70 1010.0
20260506171911 20 214 12.9 33.8 0.00 0.00 0.00 70 1010.0
20260506171407 20 159 12.9 49.9 0.00 0.00 0.00 70 1010.0
20260506170908 20 253 17.7 49.9 0.00 0.00 0.00 69 1010.1
20260506170635 20 244 16.1 33.8 0.00 0.00 0.00 69 1010.2
20260506170130 20 204 12.9 33.8 0.00 0.00 0.00 69 1010.3
20260506165400 20 236 11.3 35.4 0.00 0.00 0.00 68 1010.3
20260506165355 20 222 14.5 25.7 0.00 0.00 0.00 68 1010.3
20260506164346 20 271 14.5 35.4 0.00 0.00 0.00 68 1010.4
20260506163839 20 256 11.3 35.4 0.00 0.00 0.00 69 1010.6
20260506163334 20 194 14.5 35.4 0.00 0.00 0.00 68 1010.6
20260506163106 20 207 16.1 25.7 0.00 0.00 0.00 67 1010.6
20260506162329 20 250 14.5 22.5 0.00 0.00 0.00 67 1010.7
20260506161822 20 271 12.9 22.5 0.00 0.00 0.00 67 1010.9
20260506161318 20 249 8.0 19.3 0.00 0.00 0.00 67 1010.9
20260506160818 20 264 9.7 25.7 0.00 0.00 0.00 69 1011.1
20260506160310 20 249 11.3 25.7 0.00 0.00 0.00 68 1011.1
20260506155807 20 249 9.7 29.0 0.00 0.00 0.00 67 1011.2
20260506155306 20 220 9.7 29.0 0.00 0.00 0.00 67 1011.3
20260506155037 20 236 11.3 22.5 0.00 0.00 0.00 67 1011.5
20260506154256 20 227 11.3 29.0 0.00 0.00 0.00 68 1011.7
20260506153750 20 241 17.7 29.0 0.00 0.00 0.00 67 1011.8
20260506153243 20 194 11.3 24.1 0.00 0.00 0.00 66 1011.6
20260506152736 20 261 11.3 25.7 0.00 0.00 0.00 67 1011.7
20260506152524 21 252 9.7 25.7 0.00 0.00 0.00 66 1011.7
20260506152519 21 246 8.0 24.1 0.00 0.00 0.00 67 1011.6
20260506151234 21 249 11.3 24.1 0.00 0.00 0.00 66 1011.6
20260506150725 21 248 8.0 24.1 0.00 0.00 0.00 67 1011.7
20260506150222 21 243 9.7 19.3 0.00 0.00 0.00 66 1011.4
20260506145715 20 231 9.7 19.3 0.00 0.00 0.00 67 1011.6
20260506145210 20 243 9.7 19.3 0.00 0.00 0.00 66 1011.4
20260506144711 21 210 11.3 22.5 0.00 0.00 0.00 65 1011.2
20260506144203 21 255 8.0 22.5 0.00 0.00 0.00 65 1011.3
20260506143701 21 244 12.9 32.2 0.00 0.00 0.00 66 1011.4
20260506143153 21 205 12.9 32.2 0.00 0.00 0.00 67 1011.5
20260506142655 20 229 12.9 27.4 0.00 0.00 0.00 66 1011.4
20260506142149 20 181 14.5 24.1 0.00 0.00 0.00 67 1011.5
20260506141642 20 255 9.7 19.3 0.00 0.00 0.00 68 1011.5
20260506141138 20 239 11.3 29.0 0.00 0.00 0.00 67 1011.3
20260506140630 20 222 14.5 29.0 0.00 0.00 0.00 68 1011.5
20260506140131 20 248 12.9 37.0 0.00 0.00 0.00 68 1011.7
20260506135904 20 188 12.9 37.0 0.00 0.00 0.00 70 1011.9
20260506135119 20 229 11.3 29.0 0.00 0.00 0.00 70 1011.9
20260506134620 20 235 16.1 29.0 0.00 0.00 0.00 70 1012.0
20260506134116 20 241 9.7 14.5 0.00 0.00 0.00 70 1012.1
20260506133608 20 201 6.4 27.4 0.00 0.00 0.00 72 1012.1
20260506133104 19 233 11.3 27.4 0.00 0.00 0.00 73 1012.0
20260506132559 18 237 8.0 16.1 0.00 0.00 0.00 73 1012.0
20260506132057 18 266 9.7 45.1 0.00 0.00 0.00 74 1012.0
20260506131553 18 241 8.0 45.1 0.00 0.00 0.00 75 1011.9
20260506131055 17 302 9.7 22.5 0.00 0.00 0.00 76 1012.1
20260506130548 17 181 8.0 17.7 0.00 0.00 0.00 76 1012.1
20260506130320 17 223 8.0 19.3 0.00 0.00 0.00 76 1012.1
20260506125543 17 265 12.9 19.3 0.00 0.00 0.00 77 1012.0
20260506125036 17 255 9.7 19.3 0.00 0.00 0.00 78 1011.9
20260506124813 17 240 11.3 19.3 0.00 0.00 0.00 78 1011.9
20260506124033 16 248 8.0 19.3 0.00 0.00 0.00 79 1011.7
20260506123525 16 238 11.3 19.3 0.00 0.00 0.00 79 1011.8
20260506123020 16 257 11.3 16.1 0.00 0.00 0.00 79 1011.9
20260506122515 16 225 8.0 16.1 0.00 0.00 0.00 80 1012.1
20260506122009 16 206 6.4 16.1 0.00 0.00 0.00 80 1012.1
20260506121745 16 274 6.4 16.1 0.00 0.00 0.00 80 1012.2
20260506121253 16 256 8.0 27.4 0.00 0.00 0.00 80 1012.2
20260506120747 16 230 8.0 16.1 0.00 0.00 0.00 80 1012.3
20260506120511 16 197 12.9 27.4 0.00 0.00 0.00 80 1012.2
20260506115452 16 251 9.7 17.7 0.00 0.00 0.00 81 1012.4
20260506114947 16 240 6.4 17.7 0.00 0.00 0.00 81 1012.5
20260506114441 15 214 8.0 14.5 0.00 0.00 0.00 81 1012.5
20260506113936 15 256 8.0 14.5 0.00 0.00 0.00 81 1012.5
20260506113429 15 214 6.4 22.5 0.00 0.00 0.00 82 1012.5
20260506112929 15 223 9.7 22.5 0.00 0.00 0.00 82 1012.4
20260506112425 15 210 6.4 14.5 0.00 0.00 0.00 82 1012.5
20260506111925 15 242 6.4 16.1 0.00 0.00 0.00 83 1012.4
20260506111418 15 252 9.7 16.1 0.00 0.00 0.00 82 1012.3
20260506110915 15 241 9.7 16.1 0.00 0.00 0.00 82 1012.4
20260506110408 15 189 8.0 16.1 0.00 0.00 0.00 82 1012.5
20260506105903 15 255 9.7 16.1 0.00 0.00 0.00 82 1012.5
20260506105623 15 269 8.0 16.1 0.00 0.00 0.00 82 1012.5
20260506104843 15 219 6.4 14.5 0.00 0.00 0.00 82 1012.4
20260506104339 15 162 8.0 17.7 0.00 0.00 0.00 82 1012.4
20260506103840 15 237 8.0 17.7 0.00 0.00 0.00 83 1012.4
20260506103336 15 219 8.0 14.5 0.00 0.00 0.00 83 1012.4
20260506102827 15 266 6.4 12.9 0.00 0.00 0.00 83 1012.3
20260506102321 15 248 8.0 12.9 0.00 0.00 0.00 83 1012.3
20260506101818 15 249 4.8 17.7 0.00 0.00 0.00 83 1012.3
20260506101551 15 255 9.7 17.7 0.00 0.00 0.00 83 1012.2
20260506101056 15 258 9.7 16.1 0.00 0.00 0.00 83 1012.2
20260506100314 15 231 9.7 17.7 0.00 0.00 0.00 83 1012.1
20260506095807 15 256 9.7 17.7 0.00 0.00 0.00 83 1012.1
20260506095533 15 224 8.0 17.7 0.00 0.00 0.00 83 1012.2
20260506094755 15 236 9.7 17.7 0.00 0.00 0.00 83 1012.2
20260506094525 15 172 6.4 17.7 0.00 0.00 0.00 82 1012.1
20260506093743 15 227 8.0 16.1 0.00 0.00 0.00 82 1012.1
20260506093241 15 235 9.7 16.1 0.00 0.00 0.00 82 1012.1
20260506092741 15 243 8.0 14.5 0.00 0.00 0.00 82 1012.2
20260506092238 15 229 8.0 19.3 0.00 0.00 0.00 82 1012.2